| time (UTC) | temp F | wind direction | speed knots | gust knots | rain 1hr in | rain 24hr in | rain mn in | humidity % | barometer mb |
| 20260906135515 | 76 | 0.0 | 1.7 | 0.00 | 0.00 | 0.00 | 88 | 1015.0 | |
| 20260906134516 | 76 | 0.0 | 0.0 | 0.00 | 0.00 | 0.00 | 88 | 1015.1 | |
| 20260906133535 | 76 | 0.0 | 0.0 | 0.00 | 0.00 | 0.00 | 89 | 1015.1 | |
| 20260906132516 | 75 | 0.0 | 0.0 | 0.00 | 0.00 | 0.00 | 89 | 1015.2 | |
| 20260906131535 | 75 | 0.0 | 0.0 | 0.00 | 0.00 | 0.00 | 89 | 1015.2 | |
| 20260906130515 | 75 | 0.0 | 0.9 | 0.00 | 0.00 | 0.00 | 89 | 1015.1 | |
| 20260906125515 | 75 | 0.0 | 1.7 | 0.00 | 0.00 | 0.00 | 90 | 1014.9 | |
| 20260906124515 | 75 | 0.0 | 0.0 | 0.00 | 0.00 | 0.00 | 90 | 1014.9 | |
| 20260906123515 | 75 | 0.0 | 0.0 | 0.00 | 0.00 | 0.00 | 90 | 1014.8 | |
| 20260906122535 | 75 | 0.0 | 0.9 | 0.00 | 0.00 | 0.00 | 90 | 1014.5 | |
| 20260906121515 | 75 | 0.0 | 0.9 | 0.00 | 0.00 | 0.00 | 90 | 1014.5 | |
| 20260906120515 | 75 | 0.0 | 1.7 | 0.00 | 0.00 | 0.00 | 89 | 1014.5 | |
| 20260906115515 | 75 | 0.0 | 0.9 | 0.00 | 0.00 | 0.00 | 89 | 1014.4 | |
| 20260906114535 | 75 | 0.0 | 0.9 | 0.00 | 0.00 | 0.00 | 89 | 1014.4 | |
| 20260906113535 | 75 | 0.0 | 0.0 | 0.00 | 0.00 | 0.00 | 88 | 1014.4 | |
| 20260906112515 | 76 | 0.0 | 0.0 | 0.00 | 0.00 | 0.00 | 88 | 1014.2 | |
| 20260906111515 | 76 | 0.0 | 0.9 | 0.00 | 0.00 | 0.00 | 88 | 1014.2 | |
| 20260906110515 | 76 | 0.0 | 0.9 | 0.00 | 0.00 | 0.00 | 88 | 1014.1 | |
| 20260906105515 | 76 | 0.0 | 0.9 | 0.00 | 0.00 | 0.00 | 88 | 1014.0 | |
| 20260906104515 | 77 | 0.0 | 0.9 | 0.00 | 0.00 | 0.00 | 88 | 1014.0 | |
| 20260906103515 | 77 | 0.0 | 0.9 | 0.00 | 0.00 | 0.00 | 87 | 1014.0 | |
| 20260906102515 | 77 | 0.0 | 0.0 | 0.00 | 0.00 | 0.00 | 86 | 1013.7 | |
| 20260906101515 | 77 | 0.0 | 0.9 | 0.00 | 0.00 | 0.00 | 86 | 1013.7 | |
| 20260906100535 | 78 | 0.0 | 0.9 | 0.00 | 0.00 | 0.00 | 86 | 1013.7 | |
| 20260906095515 | 78 | 0.0 | 0.0 | 0.00 | 0.00 | 0.00 | 85 | 1013.7 | |
| 20260906094515 | 78 | 0.0 | 0.9 | 0.00 | 0.00 | 0.00 | 85 | 1013.6 | |
| 20260906093515 | 78 | 0.0 | 1.7 | 0.00 | 0.00 | 0.00 | 84 | 1013.5 | |
| 20260906092515 | 79 | 0.0 | 0.0 | 0.00 | 0.00 | 0.00 | 85 | 1013.5 | |
| 20260906091515 | 79 | 0.0 | 0.0 | 0.00 | 0.00 | 0.00 | 85 | 1013.3 | |
| 20260906090535 | 79 | 0.0 | 1.7 | 0.00 | 0.00 | 0.00 | 84 | 1013.2 | |
| 20260906085515 | 79 | 0.0 | 0.9 | 0.00 | 0.00 | 0.00 | 83 | 1013.1 | |
| 20260906084515 | 79 | 0.0 | 1.7 | 0.00 | 0.00 | 0.00 | 83 | 1013.1 | |
| 20260906083515 | 80 | 0.0 | 0.9 | 0.00 | 0.00 | 0.00 | 83 | 1013.1 | |
| 20260906082515 | 80 | 23 | 0.9 | 1.7 | 0.00 | 0.00 | 0.00 | 84 | 1013.2 |
| 20260906081515 | 80 | 0.0 | 0.9 | 0.00 | 0.00 | 0.00 | 85 | 1013.1 | |
| 20260906080555 | 81 | 0.0 | 0.9 | 0.00 | 0.00 | 0.00 | 85 | 1013.2 | |
| 20260906075517 | 81 | 0.0 | 0.0 | 0.00 | 0.00 | 0.00 | 84 | 1013.1 | |
| 20260906074516 | 81 | 0.0 | 0.9 | 0.00 | 0.00 | 0.00 | 84 | 1013.0 | |
| 20260906073517 | 81 | 0.0 | 0.9 | 0.00 | 0.00 | 0.00 | 84 | 1013.0 | |
| 20260906072537 | 82 | 0.0 | 1.7 | 0.00 | 0.00 | 0.00 | 83 | 1013.0 | |
| 20260906071517 | 82 | 0.0 | 1.7 | 0.00 | 0.00 | 0.00 | 82 | 1013.0 | |
| 20260906070517 | 82 | 0.0 | 1.7 | 0.00 | 0.00 | 0.00 | 82 | 1013.0 | |
| 20260906065517 | 83 | 0.0 | 0.9 | 0.00 | 0.00 | 0.00 | 81 | 1013.2 | |
| 20260906064516 | 83 | 0.0 | 0.9 | 0.00 | 0.00 | 0.00 | 81 | 1013.3 | |
| 20260906063516 | 83 | 0.0 | 0.9 | 0.00 | 0.00 | 0.00 | 80 | 1013.3 | |
| 20260906062516 | 83 | 0.0 | 0.9 | 0.00 | 0.00 | 0.00 | 79 | 1013.3 | |
| 20260906061516 | 83 | 0.0 | 0.9 | 0.00 | 0.00 | 0.00 | 78 | 1013.3 | |
| 20260906060517 | 84 | 0.0 | 0.0 | 0.00 | 0.00 | 0.00 | 77 | 1013.3 | |
| 20260906055516 | 84 | 0.0 | 0.0 | 0.00 | 0.00 | 0.00 | 77 | 1013.3 | |
| 20260906054516 | 84 | 0.0 | 0.0 | 0.00 | 0.00 | 0.00 | 76 | 1013.3 | |
| 20260906053517 | 84 | 0.0 | 0.0 | 0.00 | 0.00 | 0.00 | 75 | 1013.2 | |
| 20260906052517 | 85 | 0.0 | 0.0 | 0.00 | 0.00 | 0.00 | 74 | 1013.3 | |
| 20260906051516 | 85 | 0.0 | 0.0 | 0.00 | 0.00 | 0.00 | 73 | 1013.1 | |
| 20260906050516 | 85 | 0.0 | 0.0 | 0.00 | 0.00 | 0.00 | 72 | 1013.2 | |
| 20260906045516 | 85 | 0.0 | 0.0 | 0.00 | 0.00 | 0.00 | 72 | 1013.1 | |
| 20260906044515 | 86 | 0.0 | 0.0 | 0.00 | 0.00 | 0.00 | 71 | 1013.0 | |
| 20260906043516 | 86 | 0.0 | 0.0 | 0.00 | 0.00 | 0.00 | 70 | 1013.0 | |
| 20260906042516 | 86 | 0.0 | 0.0 | 0.00 | 0.00 | 0.00 | 69 | 1012.8 | |
| 20260906041516 | 87 | 0.0 | 0.9 | 0.00 | 0.00 | 0.00 | 68 | 1012.8 | |
| 20260906040516 | 87 | 0.0 | 0.0 | 0.00 | 0.00 | 0.00 | 68 | 1012.8 | |
| 20260906035515 | 88 | 0.0 | 0.0 | 0.00 | 0.00 | 0.00 | 67 | 1012.7 | |
| 20260906034515 | 88 | 0.0 | 0.9 | 0.00 | 0.00 | 0.00 | 65 | 1012.6 | |
| 20260906033515 | 88 | 0.0 | 0.9 | 0.00 | 0.00 | 0.00 | 64 | 1012.5 | |
| 20260906032516 | 88 | 0.0 | 1.7 | 0.00 | 0.00 | 0.00 | 63 | 1012.3 | |
| 20260906031515 | 88 | 0.0 | 0.9 | 0.00 | 0.00 | 0.00 | 62 | 1012.3 | |
| 20260906030515 | 88 | 0.0 | 0.9 | 0.00 | 0.00 | 0.00 | 61 | 1012.2 | |
| 20260906025516 | 88 | 0.0 | 0.9 | 0.00 | 0.00 | 0.00 | 61 | 1012.1 | |
| 20260906024515 | 88 | 0.0 | 0.0 | 0.00 | 0.00 | 0.00 | 60 | 1012.0 | |
| 20260906023515 | 88 | 0.0 | 0.0 | 0.00 | 0.00 | 0.00 | 59 | 1011.9 | |
| 20260906022515 | 88 | 0.0 | 0.0 | 0.00 | 0.00 | 0.00 | 59 | 1011.7 | |
| 20260906021515 | 89 | 0.0 | 0.9 | 0.00 | 0.00 | 0.00 | 58 | 1011.6 | |
| 20260906020535 | 88 | 0.0 | 0.9 | 0.00 | 0.00 | 0.00 | 58 | 1011.4 | |
| 20260906015515 | 88 | 0.0 | 0.9 | 0.00 | 0.00 | 0.00 | 60 | 1011.3 | |
| 20260906014515 | 89 | 0.0 | 0.0 | 0.00 | 0.00 | 0.00 | 60 | 1011.1 | |
| 20260906013515 | 89 | 0.0 | 0.9 | 0.00 | 0.00 | 0.00 | 60 | 1011.1 | |
| 20260906012515 | 90 | 0.0 | 0.9 | 0.00 | 0.00 | 0.00 | 60 | 1011.0 | |
| 20260906011536 | 90 | 0.0 | 0.0 | 0.00 | 0.00 | 0.00 | 59 | 1010.9 | |
| 20260906010515 | 91 | 0.0 | 0.0 | 0.00 | 0.00 | 0.00 | 57 | 1010.8 | |
| 20260906005515 | 92 | 0.0 | 0.0 | 0.00 | 0.00 | 0.00 | 56 | 1010.7 | |
| 20260906004515 | 92 | 0.0 | 0.0 | 0.00 | 0.00 | 0.00 | 54 | 1010.7 | |
| 20260906003515 | 93 | 0.0 | 0.0 | 0.00 | 0.00 | 0.00 | 54 | 1010.7 | |
| 20260906002515 | 94 | 0.0 | 0.9 | 0.00 | 0.00 | 0.00 | 52 | 1010.7 | |
| 20260906001515 | 95 | 0.0 | 1.7 | 0.00 | 0.00 | 0.00 | 49 | 1010.7 | |
| 20260906000515 | 97 | 0.0 | 0.9 | 0.00 | 0.00 | 0.00 | 47 | 1010.6 | |
| 20260905235535 | 97 | 23 | 0.9 | 2.6 | 0.00 | 0.00 | 0.00 | 44 | 1010.6 |
| 20260905234515 | 97 | 0 | 0.9 | 2.6 | 0.00 | 0.00 | 0.00 | 44 | 1010.7 |
| 20260905233515 | 98 | 0 | 0.9 | 2.6 | 0.00 | 0.00 | 0.00 | 43 | 1010.8 |
| 20260905232515 | 98 | 0 | 0.9 | 1.7 | 0.00 | 0.00 | 0.00 | 45 | 1010.8 |
| 20260905231535 | 98 | 0 | 0.9 | 1.7 | 0.00 | 0.00 | 0.00 | 45 | 1010.7 |
| 20260905230515 | 99 | 23 | 0.9 | 3.5 | 0.00 | 0.00 | 0.00 | 45 | 1010.8 |
| 20260905225515 | 98 | 0.0 | 1.7 | 0.00 | 0.00 | 0.00 | 46 | 1010.7 | |
| 20260905224535 | 98 | 0.0 | 1.7 | 0.00 | 0.00 | 0.00 | 46 | 1010.7 | |
| 20260905223515 | 98 | 338 | 0.9 | 1.7 | 0.00 | 0.00 | 0.00 | 46 | 1010.7 |
| 20260905222515 | 98 | 293 | 0.9 | 1.7 | 0.00 | 0.00 | 0.00 | 46 | 1010.7 |
| 20260905221515 | 98 | 0 | 0.9 | 1.7 | 0.00 | 0.00 | 0.00 | 45 | 1010.8 |
| 20260905220515 | 98 | 23 | 1.7 | 4.3 | 0.00 | 0.00 | 0.00 | 44 | 1010.9 |
| 20260905215515 | 98 | 23 | 0.9 | 1.7 | 0.00 | 0.00 | 0.00 | 44 | 1010.9 |
| 20260905214516 | 98 | 0 | 0.9 | 3.5 | 0.00 | 0.00 | 0.00 | 41 | 1010.9 |
| 20260905213517 | 98 | 0 | 1.7 | 4.3 | 0.00 | 0.00 | 0.00 | 44 | 1010.7 |
| 20260905212517 | 98 | 293 | 0.9 | 1.7 | 0.00 | 0.00 | 0.00 | 46 | 1010.8 |
| 20260905211536 | 98 | 338 | 0.9 | 1.7 | 0.00 | 0.00 | 0.00 | 47 | 1010.8 |
| 20260905210517 | 98 | 338 | 0.9 | 3.5 | 0.00 | 0.00 | 0.00 | 45 | 1010.9 |
| 20260905205516 | 98 | 45 | 0.9 | 1.7 | 0.00 | 0.00 | 0.00 | 42 | 1010.9 |
| 20260905204516 | 99 | 23 | 0.9 | 5.2 | 0.00 | 0.00 | 0.00 | 40 | 1011.2 |
| 20260905203516 | 99 | 23 | 0.9 | 4.3 | 0.00 | 0.00 | 0.00 | 40 | 1011.1 |
| 20260905202517 | 99 | 0 | 1.7 | 5.2 | 0.00 | 0.00 | 0.00 | 39 | 1011.1 |
| 20260905201516 | 99 | 23 | 0.9 | 1.7 | 0.00 | 0.00 | 0.00 | 43 | 1011.2 |
| 20260905200537 | 100 | 0 | 0.9 | 3.5 | 0.00 | 0.00 | 0.00 | 40 | 1011.3 |
| 20260905195516 | 100 | 0 | 0.9 | 3.5 | 0.00 | 0.00 | 0.00 | 39 | 1011.4 |
| 20260905194516 | 99 | 0 | 0.9 | 4.3 | 0.00 | 0.00 | 0.00 | 41 | 1011.6 |
| 20260905193516 | 99 | 0.0 | 1.7 | 0.00 | 0.00 | 0.00 | 41 | 1011.8 | |
| 20260905192516 | 100 | 0 | 0.9 | 3.5 | 0.00 | 0.00 | 0.00 | 40 | 1011.9 |
| 20260905191516 | 99 | 338 | 1.7 | 5.2 | 0.00 | 0.00 | 0.00 | 40 | 1011.9 |
| 20260905190537 | 99 | 338 | 1.7 | 5.2 | 0.00 | 0.00 | 0.00 | 42 | 1012.1 |
| 20260905185516 | 99 | 0 | 0.9 | 1.7 | 0.00 | 0.00 | 0.00 | 42 | 1012.1 |
| 20260905184517 | 99 | 0 | 0.9 | 3.5 | 0.00 | 0.00 | 0.00 | 41 | 1012.2 |
| 20260905183516 | 99 | 0 | 1.7 | 4.3 | 0.00 | 0.00 | 0.00 | 40 | 1012.3 |
| 20260905182516 | 98 | 0 | 0.9 | 2.6 | 0.00 | 0.00 | 0.00 | 45 | 1012.3 |
| 20260905181557 | 98 | 23 | 0.9 | 4.3 | 0.00 | 0.00 | 0.00 | 46 | 1012.5 |
| 20260905180516 | 98 | 315 | 0.9 | 3.5 | 0.00 | 0.00 | 0.00 | 46 | 1012.6 |
| 20260905175536 | 97 | 248 | 0.9 | 1.7 | 0.00 | 0.00 | 0.00 | 47 | 1012.6 |
| 20260905174516 | 97 | 338 | 0.9 | 1.7 | 0.00 | 0.00 | 0.00 | 50 | 1012.7 |
| 20260905173517 | 97 | 23 | 0.9 | 1.7 | 0.00 | 0.00 | 0.00 | 49 | 1013.0 |
| 20260905172516 | 96 | 203 | 0.9 | 4.3 | 0.00 | 0.00 | 0.00 | 50 | 1013.0 |
| 20260905171537 | 96 | 23 | 0.9 | 3.5 | 0.00 | 0.00 | 0.00 | 51 | 1013.2 |
| 20260905170516 | 96 | 0 | 0.9 | 1.7 | 0.00 | 0.00 | 0.00 | 51 | 1013.3 |
| 20260905165516 | 95 | 0 | 0.9 | 4.3 | 0.00 | 0.00 | 0.00 | 52 | 1013.4 |
| 20260905164516 | 95 | 23 | 0.9 | 4.3 | 0.00 | 0.00 | 0.00 | 52 | 1013.6 |
| 20260905163516 | 94 | 0 | 0.9 | 3.5 | 0.00 | 0.00 | 0.00 | 53 | 1013.6 |
| 20260905162516 | 94 | 0.0 | 1.7 | 0.00 | 0.00 | 0.00 | 55 | 1013.7 | |
| 20260905161556 | 93 | 0 | 0.9 | 3.5 | 0.00 | 0.00 | 0.00 | 56 | 1013.7 |
| 20260905160516 | 93 | 338 | 0.9 | 1.7 | 0.00 | 0.00 | 0.00 | 56 | 1013.8 |
| 20260905155516 | 92 | 0 | 0.9 | 1.7 | 0.00 | 0.00 | 0.00 | 58 | 1013.8 |
| 20260905154516 | 92 | 0 | 0.9 | 3.5 | 0.00 | 0.00 | 0.00 | 58 | 1013.7 |
| 20260905153536 | 91 | 338 | 0.9 | 3.5 | 0.00 | 0.00 | 0.00 | 58 | 1013.8 |
| 20260905152516 | 91 | 0 | 0.9 | 3.5 | 0.00 | 0.00 | 0.00 | 60 | 1013.8 |
| 20260905151516 | 90 | 0 | 0.9 | 1.7 | 0.00 | 0.00 | 0.00 | 60 | 1013.8 |
| 20260905150516 | 89 | 0 | 0.9 | 2.6 | 0.00 | 0.00 | 0.00 | 62 | 1013.8 |
| 20260905145516 | 89 | 0.0 | 0.9 | 0.00 | 0.00 | 0.00 | 62 | 1013.8 | |
| 20260905144516 | 88 | 0.0 | 0.9 | 0.00 | 0.00 | 0.00 | 63 | 1013.7 | |
| 20260905143519 | 88 | 0.0 | 1.7 | 0.00 | 0.00 | 0.00 | 65 | 1013.7 | |
| 20260905142516 | 87 | 0.0 | 0.9 | 0.00 | 0.00 | 0.00 | 66 | 1013.7 | |
| 20260905141516 | 86 | 0.0 | 1.7 | 0.00 | 0.00 | 0.00 | 67 | 1013.7 | |
| 20260905140536 | 86 | 0.0 | 1.7 | 0.00 | 0.00 | 0.00 | 69 | 1013.7 |